Hourly Weather Cayenne

Today, 20 June, Sunday

Time Temperature Precipitation Wind Pressure Humidity
00:00 +25°C° 0.2 mm 3 mps 760 mmHg 94%
01:00 +25°C° 0.4 mm 2 mps 760 mmHg 95%
02:00 +25°C° 0.4 mm 2 mps 759 mmHg 95%
03:00 +25°C° 0 mm 2 mps 759 mmHg 96%
04:00 +25°C° 0.7 mm 2 mps 759 mmHg 96%
05:00 +24°C° 0.7 mm 2 mps 759 mmHg 97%
06:00 +24°C° 0.7 mm 2 mps 759 mmHg 97%
07:00 +25°C° 0.9 mm 2 mps 760 mmHg 95%
08:00 +26°C° 0.9 mm 2 mps 760 mmHg 93%
09:00 +28°C° 0.9 mm 2 mps 760 mmHg 91%
10:00 +29°C° 0.8 mm 2 mps 760 mmHg 82%
11:00 +30°C° 0.8 mm 2 mps 760 mmHg 73%
12:00 +32°C° 0.8 mm 2 mps 760 mmHg 64%
13:00 +33°C° 0.3 mm 3 mps 759 mmHg 64%
14:00 +33°C° 0.3 mm 3 mps 759 mmHg 64%
15:00 +33°C° 0.3 mm 3 mps 758 mmHg 63%
16:00 +30°C° 0.2 mm 3 mps 758 mmHg 71%
17:00 +29°C° 0.2 mm 2 mps 758 mmHg 79%
18:00 +28°C° 0.2 mm 2 mps 758 mmHg 87%
19:00 +27°C° 0.8 mm 2 mps 758 mmHg 90%
20:00 +26°C° 0.8 mm 2 mps 759 mmHg 93%
21:00 +25°C° 0.8 mm 2 mps 759 mmHg 96%
22:00 +25°C° 0.1 mm 2 mps 759 mmHg 96%
23:00 +25°C° 0.1 mm 2 mps 759 mmHg 96%

Tomorrow, 21 June, Monday

Time Temperature Precipitation Wind Pressure Humidity
00:00 +25°C° 0.1 mm 2 mps 760 mmHg 96%
01:00 +25°C° 0 mm 2 mps 759 mmHg 96%
02:00 +25°C° 0 mm 2 mps 759 mmHg 96%
03:00 +25°C° 0 mm 2 mps 758 mmHg 96%
04:00 +24°C° 0.2 mm 2 mps 758 mmHg 97%
05:00 +24°C° 0.2 mm 2 mps 758 mmHg 97%
06:00 +24°C° 0.2 mm 2 mps 759 mmHg 97%
07:00 +25°C° 0.1 mm 2 mps 759 mmHg 95%
08:00 +26°C° 0.1 mm 2 mps 760 mmHg 92%
09:00 +28°C° 0.1 mm 2 mps 760 mmHg 90%
10:00 +29°C° 0.2 mm 2 mps 760 mmHg 80%
11:00 +31°C° 0.2 mm 2 mps 760 mmHg 70%
12:00 +33°C° 0.2 mm 3 mps 759 mmHg 61%
13:00 +31°C° 0.2 mm 3 mps 759 mmHg 65%
14:00 +31°C° 0.2 mm 3 mps 759 mmHg 69%
15:00 +30°C° 0.2 mm 3 mps 758 mmHg 73%
16:00 +29°C° 0.2 mm 3 mps 758 mmHg 78%
17:00 +28°C° 0.2 mm 3 mps 758 mmHg 84%
18:00 +27°C° 0.2 mm 3 mps 758 mmHg 89%
19:00 +26°C° 0.1 mm 3 mps 758 mmHg 91%
20:00 +26°C° 0.1 mm 3 mps 759 mmHg 93%
21:00 +25°C° 0.1 mm 3 mps 760 mmHg 95%
22:00 +25°C° 0 mm 3 mps 760 mmHg 95%
23:00 +25°C° 0 mm 3 mps 760 mmHg 96%

Day after tomorrow, 22 June, Tuesday

Time Temperature Precipitation Wind Pressure Humidity
00:00 +25°C° 0 mm 2 mps 760 mmHg 96%
01:00 +25°C° 0 mm 2 mps 759 mmHg 96%
02:00 +24°C° 0 mm 2 mps 759 mmHg 97%
03:00 +24°C° 0 mm 2 mps 758 mmHg 97%
04:00 +24°C° 0 mm 2 mps 758 mmHg 97%
05:00 +24°C° 0 mm 2 mps 759 mmHg 97%
06:00 +24°C° 0 mm 2 mps 759 mmHg 97%
07:00 +25°C° 0.1 mm 2 mps 759 mmHg 93%
08:00 +27°C° 0.1 mm 2 mps 760 mmHg 89%
09:00 +28°C° 0.1 mm 2 mps 760 mmHg 85%
10:00 +30°C° 0 mm 3 mps 760 mmHg 76%
11:00 +31°C° 0 mm 3 mps 760 mmHg 66%
12:00 +33°C° 0 mm 3 mps 759 mmHg 57%
13:00 +33°C° 0 mm 4 mps 759 mmHg 57%
14:00 +33°C° 0 mm 4 mps 759 mmHg 58%
15:00 +33°C° 0 mm 4 mps 758 mmHg 59%
16:00 +32°C° 0 mm 4 mps 758 mmHg 66%
17:00 +30°C° 0 mm 4 mps 758 mmHg 72%
18:00 +29°C° 0 mm 4 mps 758 mmHg 78%
19:00 +28°C° 0.1 mm 4 mps 758 mmHg 82%
20:00 +27°C° 0.1 mm 3 mps 759 mmHg 86%
21:00 +26°C° 0.1 mm 3 mps 759 mmHg 90%
22:00 +25°C° 0.4 mm 3 mps 759 mmHg 92%
23:00 +25°C° 0.4 mm 3 mps 760 mmHg 94%

23 June, Wednesday

Time Temperature Precipitation Wind Pressure Humidity
00:00 +25°C° 0.4 mm 3 mps 760 mmHg 95%
01:00 +25°C° 0.6 mm 3 mps 759 mmHg 96%
02:00 +24°C° 0.6 mm 3 mps 759 mmHg 96%
03:00 +24°C° 0.6 mm 2 mps 758 mmHg 96%
04:00 +24°C° 0.4 mm 2 mps 759 mmHg 96%
05:00 +24°C° 0.4 mm 2 mps 759 mmHg 96%
06:00 +24°C° 0.4 mm 2 mps 759 mmHg 96%
07:00 +25°C° 0.5 mm 3 mps 759 mmHg 94%
08:00 +27°C° 0.5 mm 3 mps 760 mmHg 92%
09:00 +28°C° 0.5 mm 3 mps 760 mmHg 89%
10:00 +29°C° 0.3 mm 3 mps 760 mmHg 84%
11:00 +30°C° 0.3 mm 3 mps 760 mmHg 78%
12:00 +30°C° 0.3 mm 3 mps 760 mmHg 72%
13:00 +31°C° 0.1 mm 3 mps 759 mmHg 68%
14:00 +31°C° 0.1 mm 3 mps 759 mmHg 64%
15:00 +33°C° 0.1 mm 3 mps 758 mmHg 60%
16:00 +30°C° 0 mm 3 mps 758 mmHg 67%
17:00 +29°C° 0 mm 3 mps 758 mmHg 73%
18:00 +28°C° 0 mm 3 mps 758 mmHg 79%
19:00 +28°C° 0 mm 3 mps 758 mmHg 81%
20:00 +27°C° 0 mm 3 mps 759 mmHg 84%
21:00 +26°C° 0 mm 3 mps 759 mmHg 86%
22:00 +26°C° 0 mm 3 mps 759 mmHg 87%
23:00 +26°C° 0 mm 3 mps 759 mmHg 88%

24 June, Thursday

Time Temperature Precipitation Wind Pressure Humidity
00:00 +26°C° 0 mm 3 mps 759 mmHg 89%
01:00 +25°C° 0 mm 3 mps 759 mmHg 90%
02:00 +25°C° 0 mm 3 mps 758 mmHg 90%
03:00 +25°C° 0 mm 3 mps 758 mmHg 91%
04:00 +25°C° 0 mm 3 mps 758 mmHg 91%
05:00 +25°C° 0 mm 3 mps 758 mmHg 90%
06:00 +25°C° 0 mm 2 mps 758 mmHg 90%
07:00 +27°C° 0.2 mm 3 mps 759 mmHg 86%
08:00 +28°C° 0.2 mm 3 mps 759 mmHg 83%
09:00 +29°C° 0.2 mm 3 mps 759 mmHg 79%
10:00 +30°C° 0.4 mm 3 mps 759 mmHg 75%
11:00 +31°C° 0.4 mm 2 mps 759 mmHg 70%
12:00 +31°C° 0.4 mm 2 mps 759 mmHg 66%
13:00 +31°C° 0.2 mm 2 mps 758 mmHg 65%
14:00 +31°C° 0.2 mm 2 mps 758 mmHg 65%
15:00 +31°C° 0.2 mm 2 mps 757 mmHg 64%
16:00 +31°C° 0 mm 2 mps 757 mmHg 69%
17:00 +30°C° 0 mm 2 mps 757 mmHg 74%
18:00 +29°C° 0 mm 3 mps 757 mmHg 79%
19:00 +28°C° 0 mm 3 mps 757 mmHg 83%
20:00 +27°C° 0 mm 3 mps 758 mmHg 86%
21:00 +26°C° 0 mm 3 mps 758 mmHg 90%
22:00 +26°C° 0.1 mm 3 mps 758 mmHg 91%
23:00 +26°C° 0.1 mm 3 mps 759 mmHg 92%

25 June, Friday

Time Temperature Precipitation Wind Pressure Humidity
00:00 +25°C° 0.1 mm 3 mps 759 mmHg 93%
01:00 +25°C° 0.1 mm 3 mps 758 mmHg 94%
02:00 +25°C° 0.1 mm 2 mps 758 mmHg 94%
03:00 +25°C° 0.1 mm 2 mps 757 mmHg 95%
04:00 +24°C° 0.2 mm 2 mps 758 mmHg 95%
05:00 +24°C° 0.2 mm 2 mps 758 mmHg 96%
06:00 +24°C° 0.2 mm 2 mps 758 mmHg 97%
07:00 +25°C° 0 mm 2 mps 759 mmHg 93%
08:00 +27°C° 0 mm 2 mps 759 mmHg 89%
09:00 +28°C° 0 mm 2 mps 759 mmHg 85%
10:00 +30°C° 0.2 mm 2 mps 759 mmHg 76%
11:00 +31°C° 0.2 mm 3 mps 759 mmHg 66%
12:00 +34°C° 0.2 mm 3 mps 759 mmHg 56%
13:00 +34°C° 0.1 mm 3 mps 758 mmHg 58%
14:00 +33°C° 0.1 mm 3 mps 758 mmHg 59%
15:00 +33°C° 0.1 mm 4 mps 757 mmHg 61%
16:00 +32°C° 0.1 mm 4 mps 757 mmHg 67%
17:00 +29°C° 0.1 mm 4 mps 757 mmHg 74%
18:00 +28°C° 0.1 mm 4 mps 757 mmHg 81%
19:00 +27°C° 0.1 mm 4 mps 758 mmHg 84%
20:00 +26°C° 0.1 mm 4 mps 758 mmHg 87%
21:00 +26°C° 0.1 mm 4 mps 758 mmHg 90%
22:00 +25°C° 0 mm 3 mps 759 mmHg 90%
23:00 +25°C° 0 mm 3 mps 759 mmHg 91%
Show more

We Need Your Consent

Meteoprog and our Service Providers may store and access personal data such as cookies, device identifiers or other similar technologies on your device and process such data to personalise content and ads, as well as provide social media features and to analyse the traffic.

  • Store and/or access information on your device

    Cookies, device identifiers or other information can be stored or accessed on your device for the purposes indicated above.

  • Personalised ads and content, ad and content measurement, audience insights, and products development

    Ads and content can be personalised based on a profile. More data can be added to better personalise ads and content. Ad and content performance can be measured. Insights about the audience who saw the ads and content can be derived. Such data can be used to develop or improve user’s experience, systems and software.

By clicking ‘I Agree’ you will allow the use of indicated cookies, device identifiers, web beacons or other similar technologies. Your settings can be changed in the browser on your device.

For certain purposes, legitimate interests may be relied on, rather than consent. You can read more about this in our Privacy and Cookie Policy.